Home > Weather > Stockerau > Past weeks

Flag for Austria Past Weather in Stockerau, Lower Austria, Austria — Yesterday and Last 2 Weeks

Now
81 °F

Sunny.


Feels Like: 80 °F
Forecast: 56 / 86 °F
Wind: 15 mph from Southeast

Location: Tulln Airport

Current Time: Aug 26, 2016 at 3:58:31 PM

Latest Report: Aug 26, 2016 at 2:50 PM


Visibility: 25 mi

Pressure: 30.15 "Hg

Humidity: 39%

Dew Point: 54 °F

Location of StockerauLocation

Past Weather in Stockerau — Graph

°F

Stockerau Temperature Yesterday

Maximum temperature yesterday: 81 °F (at 2:50 PM)
Minimum temperature yesterday: 54 °F (at 5:50 AM)
Average temperature yesterday: 71 °F

High & Low Weather Summary for the Past Weeks

 TemperatureHumidityPressure
High86 °F (Aug 14, 4:50 PM)100% (Aug 16, 5:50 AM)30.36 "Hg (Aug 16, 5:50 AM)
Low46 °F (Aug 12, 5:50 AM)32% (Aug 18, 2:50 PM)29.80 "Hg (Aug 18, 3:50 PM)
Average69 °F67%30.12 "Hg
* Reported Aug 11 1:50 PM — Aug 26 1:50 PM, Stockerau, Weather by CustomWeather, © 2016

Note: Actual official high and low records may vary slightly from our data, if they occured in-between our weather recording intervals... More about our weather records

Advertising

Stockerau Weather History for the Previous 24 Hours

Scroll right to see more
 ConditionsComfort  
Time TempWeatherWind HumidityBarometerVisibility
1:50 PM
Fri, Aug 26
82 °FSunny.16 mph40%30.15 "Hg25 mi
1:20 PM81 °FSunny.17 mph42%30.15 "Hg25 mi
12:50 PM81 °FSunny.15 mph42%30.15 "Hg31 mi
11:50 AM79 °FSunny.15 mph48%30.15 "Hg31 mi
10:50 AM77 °FSunny.13 mph47%30.15 "Hg31 mi
9:50 AM73 °FSunny.14 mph53%30.15 "Hg31 mi
9:20 AM73 °FSunny.12 mph53%30.15 "Hg37 mi
8:50 AM70 °FSunny.9 mph64%30.15 "Hg37 mi
8:20 AM66 °FSunny.12 mph73%30.15 "Hg37 mi
7:50 AM64 °FSunny.12 mph78%30.15 "Hg37 mi
6:50 AM61 °FClear.13 mph83%30.15 "Hg37 mi
5:50 AM61 °FClear.13 mph83%30.15 "Hg22 mi
10:50 PM
Thu, Aug 25
68 °FClear.8 mph69%30.18 "Hg22 mi
9:50 PM68 °FClear.6 mph69%30.18 "Hg25 mi
7:50 PM73 °FSunny.6 mph57%30.15 "Hg31 mi
6:50 PM77 °FSunny.8 mph51%30.15 "Hg28 mi
5:50 PM79 °FSunny.8 mph45%30.15 "Hg28 mi
4:50 PM81 °FSunny.10 mph45%30.15 "Hg25 mi
3:50 PM81 °FPassing clouds.10 mph45%30.18 "Hg25 mi
Weather by CustomWeather, © 2016

See weather overviewHow to use our weather pages